Overview Statistics Trail Chart Weather Telemetry Raw packets
 

This is the latest recevied weather packets stored in our database for station/object EA7OC-10. If no packets are shown the sender has not sent any weather packets the latest 10 day(s).

<< 1 2 3 4 >>
Time Temp. Humidity Pressure Rain* Wind** Luminosity Snow
1788608620 44.44° C 24% 1020.5 hPa - - - -
1788607720 42.22° C 25% 1020.7 hPa - - - -
1788606820 41.11° C 25% 1020.7 hPa - - - -
1788605920 39.44° C 26% 1020.7 hPa - - - -
1788605020 37.22° C 26% 1020.8 hPa - - - -
1788604120 35° C 25% 1020.9 hPa - - - -
1788603220 33.89° C 26% 1020.9 hPa - - - -
1788602319 32.78° C 25% 1020.8 hPa - - - -
1788601419 32.22° C 25% 1021.1 hPa - - - -
1788599640 31.67° C 25% 1020.7 hPa - - - -
1788598740 31.67° C 25% 1020.7 hPa - - - -
1788597839 31.67° C 25% 1020.3 hPa - - - -
1788596939 31.11° C 25% 1020.3 hPa - - - -
1788596039 31.11° C 25% 1020.2 hPa - - - -
1788595139 31.11° C 25% 1019.8 hPa - - - -
1788594239 31.11° C 25% 1019.2 hPa - - - -
1788593339 30.56° C 25% 1018.9 hPa - - - -
1788592439 30.56° C 25% 1019.1 hPa - - - -
1788591539 30.56° C 25% 1019.1 hPa - - - -
1788590639 31.11° C 24% 1019.3 hPa - - - -
1788589738 30.56° C 25% 1019.1 hPa - - - -
1788588838 30.56° C 25% 1019.2 hPa - - - -
1788587938 30.56° C 24% 1019.1 hPa - - - -
1788587038 30.56° C 25% 1018.9 hPa - - - -
1788586138 30° C 24% 1018.4 hPa - - - -

* Rain since midnight (hover to see other rain measurements)
** Current wind speed in m/s (hover to see current wind gust speed)